{"data":{"norad_id":59798,"intl_designator":"2024-093S","name":"STARLINK-31687","alt_names":[],"object_type":"PAYLOAD","status":"ACTIVE","operator":null,"country":"US","launch_date":"2024-05-18","launch_site_code":"AFETR","launch_vehicle":null,"mission":null,"orbit_class":"UNKNOWN","rcs_meters":null,"size_class":null,"mass_kg":null,"dimensions":null,"purposes":["comms"],"wikipedia_slug":null,"has_3d_model":false,"image_url":null,"decayed_at":null,"tle_current":{"epoch":"2026-09-21T11:22:08.261472Z","epoch_age_seconds":90359,"freshness":"FRESH","line1":"1 59798U 24093S   26264.47370673 -.00000674  00000+0 -14984-4 0  9991","line2":"2 59798  43.0017 183.5829 0000600 287.6666  72.4120 15.27574519132635","mean_motion":15.27574519,"eccentricity":6.0e-5,"inclination_deg":43.0017,"raan_deg":183.5829,"arg_perigee_deg":287.6666,"mean_anomaly_deg":72.412,"bstar":-1.4984e-5,"rev_number":13263,"period_min":94.267086946611,"perigee_km":482.65383602401,"apogee_km":483.47718032499,"semimajor_km":6861.2025081745,"source":"CELESTRAK","updated_at":"2026-09-22T09:00:49.074108Z"}}}